Overview Statistics Trail Chart Weather Telemetry Raw packets
 

This is the latest recevied weather packets stored in our database for station/object DC9VQ-13. If no packets are shown the sender has not sent any weather packets the latest 10 day(s).

<< 18 19 20 21 22 23 24 >>
Time Temp. Humidity Pressure Rain* Wind** Luminosity Snow
1788354357 24.44° C 51% 1020.6 hPa 0 mm - - -
1788353755 23.89° C 52% 1020.6 hPa 0 mm - - -
1788353152 23.89° C 52% 1020.6 hPa 0 mm - - -
1788352551 23.89° C 54% 1020.8 hPa 0 mm - - -
1788351948 23.89° C 55% 1020.9 hPa 0 mm - - -
1788351347 23.89° C 55% 1021 hPa 0 mm - - -
1788350745 23.89° C 55% 1021 hPa 0 mm - - -
1788350142 23.89° C 56% 1021 hPa 0 mm - - -
1788349541 23.33° C 59% 1021.1 hPa 0 mm - - -
1788348939 23.33° C 59% 1021.1 hPa 0 mm - - -
1788348336 23.33° C 61% 1021.1 hPa 0 mm - - -
1788347735 22.78° C 61% 1021.1 hPa 0 mm - - -
1788347132 22.78° C 62% 1021.2 hPa 0 mm - - -
1788346531 22.78° C 61% 1021.3 hPa 0 mm - - -
1788345928 22.22° C 64% 1021.5 hPa 0 mm - - -
1788345327 21.67° C 65% 1021.6 hPa 0 mm - - -
1788344725 21.67° C 66% 1021.6 hPa 0 mm - - -
1788344125 21.67° C 68% 1021.6 hPa 0 mm - - -
1788343520 21.11° C 70% 1021.6 hPa 0 mm - - -
1788342919 21.11° C 72% 1021.8 hPa 0 mm - - -
1788342317 20.56° C 74% 1021.7 hPa 0 mm - - -
1788341715 20° C 75% 1021.7 hPa 0 mm - - -
1788341112 19.44° C 73% 1021.7 hPa 0 mm - - -
1788340511 19.44° C 76% 1021.8 hPa 0 mm - - -
1788339910 18.89° C 77% 1021.9 hPa 0 mm - - -

* Rain latest hour (hover to see other rain measurements)
** Current wind speed in m/s (hover to see current wind gust speed)